Date,TemperatureHighF,TemperatureAvgF,TemperatureLowF,DewpointHighF,DewpointAvgF,DewpointLowF,HumidityHigh,HumidityAvg,HumidityLow,PressureMaxIn,PressureMinIn,WindSpeedMaxMPH,WindSpeedAvgMPH,GustSpeedMaxMPH,PrecipitationSumIn
2013-1-1,37.0,29.4,23.0,27.0,23.2,19.0,86,77,56,30.24,30.03,13,8,16,0.00
2013-1-2,43.0,31.2,22.0,26.0,22.2,19.0,91,70,37,30.29,30.16,13,7,18,0.00
2013-1-3,37.0,29.9,24.0,25.0,20.9,17.0,86,69,45,30.43,30.29,11,5,14,0.00
2013-1-4,32.0,30.2,27.0,29.0,27.2,24.0,95,87,74,30.40,30.22,18,8,23,0.00
2013-1-5,54.0,37.3,27.0,27.0,20.8,11.0,91,57,17,30.33,30.15,22,13,28,0.00
2013-1-6,51.0,35.1,23.0,24.0,20.1,18.0,85,58,28,30.43,30.25,10,7,12,0.00
2013-1-7,50.0,36.3,25.0,25.0,21.1,18.0,78,55,27,30.25,30.00,20,8,26,0.00
2013-1-8,49.0,37.2,25.0,38.0,30.5,22.0,91,76,63,30.12,29.94,8,4,11,0.00
2013-1-9,45.0,38.6,33.0,39.0,33.5,25.0,95,82,52,30.29,29.99,31,16,42,1.08
2013-1-10,52.0,42.7,38.0,43.0,39.2,37.0,98,88,69,30.03,29.83,19,12,24,0.00
2013-1-11,61.0,47.2,37.0,44.0,37.4,25.0,92,70,45,29.85,29.71,23,12,27,0.00
2013-1-12,41.0,35.3,26.0,28.0,23.1,20.0,83,61,45,30.00,29.83,20,10,24,0.00
2013-1-13,33.0,25.8,22.0,22.0,18.3,15.0,87,73,51,30.19,30.00,12,8,15,0.00
2013-1-14,27.0,22.8,19.0,15.0,10.5,7.0,73,58,44,30.23,30.12,14,10,19,0.00
2013-1-15,33.0,24.6,18.0,18.0,14.5,10.0,81,66,44,30.21,30.14,11,6,17,0.00
2013-1-16,52.0,32.6,19.0,26.0,19.2,13.0,80,60,35,30.33,30.17,22,11,29,0.00
2013-1-17,54.0,38.9,27.0,26.0,23.9,23.0,82,58,29,30.53,30.33,11,8,13,0.00
2013-1-18,60.0,41.9,27.0,30.0,25.4,23.0,85,56,24,30.46,30.17,24,11,28,0.00
2013-1-19,66.0,44.5,29.0,28.0,21.3,9.0,85,47,10,30.27,30.11,18,10,22,0.00
2013-1-20,64.0,42.7,26.0,24.0,19.0,14.0,73,45,14,30.27,30.07,15,8,20,0.00
2013-1-21,47.0,34.8,26.0,26.0,22.1,18.0,87,61,38,30.33,30.15,15,8,18,0.00
2013-1-22,67.0,41.7,23.0,34.0,24.5,17.0,83,57,17,30.23,30.11,17,9,23,0.00
2013-1-23,76.0,46.6,25.0,27.0,17.9,3.0,82,42,5,30.25,30.13,21,10,26,0.00
2013-1-24,76.0,54.0,33.0,25.0,16.2,7.0,47,26,6,30.21,30.06,17,11,23,0.00
2013-1-25,58.0,49.9,39.0,32.0,28.5,25.0,63,44,28,30.21,30.05,18,8,23,0.00
2013-1-26,66.0,49.7,34.0,47.0,35.3,26.0,81,59,38,30.17,29.97,19,9,23,0.00
2013-1-27,74.0,60.0,49.0,53.0,42.8,32.0,100,60,21,29.99,29.87,33,17,43,0.00
2013-1-28,73.0,55.5,40.0,51.0,33.3,21.0,78,49,15,29.95,29.77,30,13,37,0.00
2013-1-29,52.0,44.6,31.0,32.0,25.2,4.0,80,47,22,29.83,29.61,34,16,45,0.00
2013-1-30,49.0,35.4,24.0,25.0,11.2,2.0,80,41,13,30.13,29.83,24,15,33,0.00
2013-1-31,61.0,50.2,29.0,21.0,13.5,8.0,52,25,12,30.26,30.09,24,10,29,0.00
2013-2-1,64.0,40.7,22.0,26.0,19.3,12.0,89,50,12,30.27,30.04,24,12,31,0.00
2013-2-2,61.0,44.4,29.0,23.0,16.6,12.0,63,35,14,30.35,30.10,18,11,23,0.00
2013-2-3,60.0,45.5,27.0,43.0,25.9,11.0,72,47,29,30.35,29.92,21,12,29,0.00
2013-2-4,64.0,50.7,35.0,43.0,24.2,9.0,78,41,13,29.99,29.85,23,12,29,0.00
2013-2-5,71.0,48.3,29.0,28.0,12.6,6.0,53,28,7,30.01,29.91,14,9,21,0.00
2013-2-6,72.0,51.0,33.0,38.0,25.1,12.0,87,41,14,29.98,29.79,20,11,26,0.00
2013-2-7,60.0,49.5,34.0,27.0,23.3,16.0,48,35,26,30.23,29.85,29,16,38,0.00
2013-2-8,57.0,41.1,25.0,25.0,17.1,14.0,68,40,19,30.25,30.00,18,11,24,0.00
2013-2-9,72.0,51.3,35.0,40.0,25.6,10.0,59,39,12,30.00,29.57,32,16,39,0.00
2013-2-10,58.0,43.2,31.0,13.0,6.0,-3.0,37,23,10,29.99,29.79,31,14,40,0.00
2013-2-11,54.0,41.4,29.0,25.0,18.1,1.0,59,39,24,30.09,29.92,25,16,32,0.00
2013-2-12,40.0,35.3,29.0,35.0,31.8,25.0,98,86,59,30.10,29.87,25,11,30,0.39
2013-2-13,55.0,38.1,26.0,29.0,23.4,16.0,93,61,20,30.10,29.95,16,9,24,0.00
2013-2-14,59.0,41.0,25.0,33.0,24.1,20.0,84,55,22,30.17,29.95,21,8,28,0.00
2013-2-15,42.0,34.7,25.0,32.0,23.4,19.0,82,64,40,30.39,30.17,22,10,28,0.00
2013-2-16,64.0,40.5,22.0,25.0,17.5,6.0,84,48,9,30.39,30.07,16,10,22,0.00
2013-2-17,71.0,48.3,23.0,20.0,10.3,-4.0,63,30,5,30.07,29.74,26,15,32,0.00
2013-2-18,55.0,44.8,33.0,27.0,18.7,10.0,60,36,18,30.11,29.73,23,14,28,0.00
2013-2-19,55.0,41.9,28.0,40.0,20.0,14.0,94,45,21,30.20,30.01,23,13,31,0.08
2013-2-20,44.0,40.2,37.0,42.0,38.6,36.0,99,93,90,30.01,29.66,22,17,29,0.34
2013-2-21,54.0,41.1,31.0,37.0,33.4,27.0,99,75,50,29.93,29.59,32,14,40,0.13
2013-2-22,46.0,33.7,24.0,29.0,25.0,21.0,93,71,43,30.06,29.92,14,7,19,0.00
2013-2-23,60.0,43.0,26.0,26.0,17.2,4.0,91,45,10,29.98,29.76,20,12,27,0.00
2013-2-24,69.0,48.7,33.0,30.0,20.0,7.0,76,39,8,29.76,29.53,33,16,44,0.00
2013-2-25,36.0,31.3,28.0,31.0,27.7,23.0,96,85,69,29.92,29.64,43,28,56,0.03
2013-2-26,61.0,38.5,22.0,37.0,25.2,17.0,88,63,18,29.91,29.73,18,8,23,0.00
2013-2-27,44.0,35.4,28.0,28.0,25.5,23.0,84,67,46,30.27,29.91,27,16,32,0.00
2013-2-28,53.0,36.9,23.0,26.0,22.4,18.0,88,60,24,30.32,30.19,13,6,15,0.00
2013-3-1,54.0,39.0,25.0,30.0,21.6,16.0,87,55,21,30.32,30.20,20,10,26,0.00
2013-3-2,66.0,45.4,26.0,28.0,22.7,18.0,80,46,16,30.39,30.20,16,8,19,0.00
2013-3-3,81.0,55.5,33.0,23.0,17.0,6.0,60,29,6,30.20,29.74,27,15,36,0.00
2013-3-4,80.0,68.8,48.0,36.0,23.7,14.0,55,20,11,30.06,29.66,36,17,47,0.00
2013-3-5,53.0,40.6,29.0,33.0,18.5,12.0,74,44,22,30.44,30.06,40,12,49,0.00
2013-3-6,61.0,44.5,27.0,16.0,13.3,8.0,50,30,14,30.35,30.06,23,13,31,0.00
2013-3-7,74.0,54.2,32.0,36.0,20.7,14.0,49,29,13,30.07,29.95,20,12,26,0.00
2013-3-8,78.0,61.4,50.0,52.0,43.4,36.0,79,55,21,30.01,29.80,26,15,34,0.00
2013-3-9,64.0,57.0,45.0,53.0,30.7,9.0,91,46,11,29.84,29.71,31,19,39,0.00
2013-3-10,50.0,41.1,29.0,27.0,15.1,5.0,62,36,16,30.15,29.84,37,24,48,0.00
2013-3-11,69.0,45.2,22.0,20.0,11.0,5.0,53,29,9,30.15,29.93,19,10,28,0.00
2013-3-12,58.0,48.7,38.0,28.0,20.9,11.0,61,34,22,30.35,29.93,29,17,36,0.00
2013-3-13,69.0,48.8,30.0,31.0,24.6,20.0,74,43,17,30.40,30.22,18,10,24,0.00
2013-3-14,82.0,58.6,36.0,31.0,21.0,14.0,50,28,7,30.28,30.12,18,9,24,0.00
2013-3-15,88.0,63.8,40.0,35.0,21.1,10.0,61,26,5,30.17,29.86,21,12,27,0.00
2013-3-16,76.0,62.4,43.0,37.0,31.2,15.0,61,34,12,29.87,29.74,16,12,22,0.00
2013-3-17,77.0,56.1,37.0,38.0,32.3,21.0,77,46,12,29.89,29.64,38,13,46,0.00
2013-3-18,68.0,54.1,40.0,30.0,24.2,14.0,55,32,16,30.05,29.71,19,10,26,0.00
2013-3-19,65.0,50.9,35.0,36.0,29.7,25.0,69,46,21,30.19,29.94,20,9,26,0.00
2013-3-20,63.0,49.4,32.0,37.0,26.5,18.0,87,49,17,30.35,29.95,21,10,27,0.00
2013-3-21,81.0,61.8,46.0,43.0,27.5,15.0,78,34,9,29.95,29.52,33,16,43,0.00
2013-3-22,58.0,48.9,40.0,41.0,33.4,11.0,93,60,17,29.88,29.61,21,11,26,0.00
2013-3-23,75.0,49.9,30.0,40.0,24.4,-21.0,90,53,2,29.97,29.59,46,19,55,0.00
2013-3-24,47.0,33.7,23.0,19.0,8.8,1.0,61,39,16,30.22,29.97,41,12,53,0.00
2013-3-25,50.0,35.3,17.0,15.0,9.2,3.0,56,34,20,30.34,30.13,17,7,21,0.00
2013-3-26,62.0,43.2,25.0,12.0,9.2,7.0,46,27,12,30.35,30.10,28,14,34,0.00
2013-3-27,79.0,56.6,32.0,34.0,22.6,10.0,51,29,12,30.12,29.97,23,14,29,0.00
2013-3-28,82.0,61.7,38.0,40.0,29.0,15.0,81,39,7,30.12,29.99,17,9,22,0.00
2013-3-29,78.0,63.6,47.0,52.0,46.0,29.0,89,57,26,30.11,29.96,17,9,21,0.00
2013-3-30,83.0,66.5,47.0,49.0,32.0,-99.9,93,42,8,30.05,29.90,15,9,21,0.00
2013-3-31,71.0,61.0,51.0,44.0,39.4,34.0,73,46,31,30.12,29.91,27,10,36,0.00
2013-4-1,84.0,63.9,43.0,51.0,39.0,26.0,75,46,12,30.05,29.84,29,13,37,0.00
2013-4-2,57.0,40.6,35.0,47.0,37.4,34.0,96,88,70,30.09,29.96,21,17,28,0.00
2013-4-3,49.0,39.5,34.0,35.0,32.3,27.0,94,76,52,30.19,30.07,18,14,24,0.00
2013-4-4,72.0,48.2,27.0,34.0,27.5,20.0,88,54,13,30.22,30.09,15,8,25,0.00
2013-4-5,80.0,58.3,33.0,38.0,28.1,19.0,81,40,11,30.18,29.90,26,14,34,0.00
2013-4-6,78.0,63.9,46.0,39.0,34.3,27.0,69,37,16,29.93,29.84,20,11,29,0.00
2013-4-7,88.0,66.4,45.0,40.0,27.4,16.0,67,32,7,29.87,29.66,21,12,31,0.00
2013-4-8,88.0,69.9,48.0,45.0,23.5,19.0,52,20,8,29.71,29.50,29,16,38,0.00
2013-4-9,81.0,62.3,35.0,59.0,38.9,15.0,90,47,11,29.91,29.51,34,22,43,0.00
2013-4-10,52.0,36.6,22.0,19.0,13.8,9.0,86,42,21,30.07,29.89,29,17,39,0.00
2013-4-11,69.0,48.2,27.0,20.0,14.7,9.0,52,29,10,29.98,29.76,16,8,25,0.00
2013-4-12,78.0,60.5,43.0,34.0,22.1,15.0,40,24,11,29.97,29.80,19,10,29,0.00
2013-4-13,75.0,61.0,44.0,50.0,40.4,32.0,69,48,26,29.92,29.70,24,13,32,0.00
2013-4-14,87.0,68.1,47.0,51.0,33.2,15.0,97,44,7,29.72,29.55,23,16,34,0.00
2013-4-15,88.0,68.4,52.0,29.0,22.1,12.0,38,19,6,29.78,29.64,24,12,35,0.00
2013-4-16,81.0,63.0,49.0,47.0,32.3,16.0,61,33,14,29.93,29.75,23,12,30,0.00
2013-4-17,90.0,71.1,45.0,61.0,33.2,1.0,86,44,3,29.83,29.54,38,19,48,0.00
2013-4-18,53.0,42.8,31.0,37.0,19.4,11.0,71,42,19,30.19,29.79,38,21,48,0.00
2013-4-19,64.0,45.5,23.0,15.0,8.9,5.0,52,26,9,30.30,30.06,16,10,24,0.00
2013-4-20,80.0,60.2,41.0,21.0,11.9,-2.0,33,18,3,30.06,29.78,25,15,32,0.00
2013-4-21,79.0,63.3,40.0,28.0,19.6,6.0,44,21,6,30.06,29.90,20,9,26,0.00
2013-4-22,91.0,69.5,47.0,43.0,27.7,7.0,67,30,4,29.98,29.75,24,13,30,0.00
2013-4-23,71.0,40.9,33.0,38.0,27.5,23.0,74,59,26,30.28,29.79,33,22,42,0.00
2013-4-24,33.0,31.2,30.0,23.0,21.1,20.0,66,64,63,30.30,30.26,17,12,22,0.00
2013-4-26,85.0,76.7,62.0,38.0,26.6,15.0,40,19,7,30.14,29.96,25,20,34,0.00
2013-4-27,80.0,63.8,44.0,43.0,34.5,26.0,74,39,13,30.22,30.05,18,8,23,0.00
2013-4-28,87.0,68.0,46.0,52.0,34.2,27.0,55,32,12,30.07,29.86,20,11,25,0.00
2013-4-29,88.0,71.5,52.0,45.0,35.8,28.0,70,32,11,29.92,29.71,23,15,31,0.00
2013-4-30,92.0,73.8,54.0,54.0,38.9,21.0,70,35,8,29.78,29.65,27,14,40,0.00
2013-5-1,78.0,69.7,64.0,51.0,41.8,32.0,64,37,19,29.99,29.72,30,22,37,0.00
2013-5-3,69.0,57.5,34.0,17.0,10.8,6.0,46,17,9,30.42,30.05,14,10,24,0.00
2013-5-4,73.0,57.1,34.0,19.0,14.0,10.0,36,19,9,30.10,29.99,12,7,18,0.00
2013-5-5,71.0,56.1,36.0,27.0,18.0,11.0,40,23,13,30.24,30.08,12,7,19,0.00
2013-5-6,66.0,51.8,44.0,40.0,30.4,16.0,57,44,23,30.14,30.09,17,10,23,0.00
2013-5-9,81.0,77.7,72.0,49.0,34.5,26.0,43,23,13,29.92,29.88,20,13,27,0.00
2013-6-12,94.0,81.2,67.0,62.0,57.7,52.0,81,48,24,30.09,30.00,18,13,24,0.00
2013-6-13,93.0,79.9,69.0,64.0,58.6,53.0,74,51,28,30.14,29.99,19,11,27,0.00
2013-6-14,80.0,72.2,66.0,66.0,62.5,58.0,94,73,49,30.09,29.99,25,11,31,0.29
2013-6-15,87.0,74.6,67.0,66.0,63.6,59.0,95,72,38,30.09,29.95,20,10,26,0.01
2013-6-16,94.0,80.6,67.0,67.0,62.3,55.0,95,59,28,30.08,29.94,16,11,23,0.00
2013-6-17,92.0,79.2,70.0,68.0,63.8,59.0,86,62,33,30.07,29.97,18,11,21,0.00
2013-6-18,84.0,79.0,72.0,61.0,58.9,57.0,66,51,39,30.13,30.01,14,10,19,0.00
2013-6-19,85.0,74.6,67.0,67.0,62.6,50.0,88,67,44,30.06,29.93,33,18,41,0.03
2013-6-20,96.0,78.0,71.0,63.0,60.0,50.0,72,56,22,30.01,29.90,25,19,33,0.00
2013-6-22,98.0,89.0,75.0,63.0,58.9,56.0,60,37,25,29.99,29.84,26,20,35,0.00
2013-6-23,99.0,83.2,69.0,58.0,54.2,48.0,56,39,17,29.93,29.84,23,16,32,0.00
2013-6-24,96.0,81.9,71.0,63.0,59.7,55.0,68,49,28,30.00,29.87,25,18,34,0.00
2013-6-25,102.0,83.4,71.0,63.0,55.6,38.0,67,45,11,29.97,29.86,24,14,35,0.00
2013-6-26,106.0,87.9,72.0,65.0,54.7,34.0,76,42,8,29.98,29.89,19,12,25,0.00
2013-6-27,104.0,87.3,72.0,63.0,55.9,43.0,71,40,13,30.08,29.97,18,12,24,0.00
2013-6-28,101.0,87.0,73.0,55.0,51.2,46.0,52,31,16,30.16,30.02,18,9,24,0.00
2013-6-29,99.0,82.7,71.0,63.0,54.7,48.0,70,41,17,30.11,29.94,24,10,32,0.08
2013-6-30,87.0,77.0,67.0,62.0,58.5,51.0,82,55,35,30.18,30.01,20,11,26,0.02
2013-7-1,83.0,76.0,69.0,58.0,51.3,43.0,61,43,28,30.22,30.09,15,8,21,0.00
2013-7-2,83.0,73.6,60.0,47.0,42.5,38.0,58,34,20,30.25,30.11,12,7,19,0.00
2013-7-3,85.0,73.8,58.0,42.0,40.5,39.0,54,31,20,30.17,30.00,18,10,25,0.00
2013-7-4,89.0,75.8,61.0,55.0,48.4,40.0,79,41,21,30.09,29.93,22,14,28,0.30
2013-7-5,93.0,80.5,64.0,55.0,49.9,47.0,60,37,20,30.03,29.88,21,14,29,0.00
2013-7-6,94.0,79.7,68.0,55.0,48.8,44.0,54,36,17,30.01,29.89,22,14,31,0.00
2013-7-7,93.0,81.6,69.0,58.0,50.2,47.0,50,35,20,30.09,29.98,18,12,26,0.00
2013-7-8,95.0,79.1,67.0,60.0,52.8,-99.9,60,43,24,30.17,30.06,16,8,25,0.00
2013-7-9,94.0,82.4,69.0,59.0,57.1,54.0,69,44,27,30.19,30.07,18,12,25,0.00
2013-7-19,84.0,73.6,64.0,66.0,63.4,59.0,100,74,42,30.19,30.02,15,9,22,0.00
2013-7-20,87.0,76.5,65.0,65.0,61.4,55.0,95,63,36,30.10,29.95,15,9,20,0.00
2013-7-21,90.0,78.2,65.0,64.0,61.4,57.0,91,59,34,30.04,29.93,19,11,23,0.00
2013-7-22,90.0,79.1,68.0,67.0,64.2,61.0,90,63,38,30.04,29.93,15,10,20,0.00
2013-7-23,94.0,81.6,70.0,67.0,64.4,59.0,87,59,31,30.04,29.93,15,9,20,0.00
2013-7-24,94.0,82.9,72.0,68.0,64.6,61.0,80,57,35,30.10,29.99,19,8,25,0.00
2013-7-25,90.0,79.2,72.0,67.0,63.7,58.0,78,60,37,30.16,30.06,17,8,21,0.00
2013-7-26,88.0,78.6,71.0,68.0,62.1,51.0,87,60,28,30.21,30.07,19,12,26,0.00
2013-7-27,87.0,74.9,63.0,63.0,55.1,43.0,88,56,23,30.22,30.02,15,6,19,0.00
2013-7-28,90.0,77.3,62.0,61.0,55.6,49.0,72,49,31,30.07,29.92,17,11,22,0.00
2013-7-29,94.0,80.3,70.0,67.0,63.3,58.0,87,60,31,30.03,29.96,21,12,30,0.00
2013-7-30,93.0,82.5,68.0,67.0,63.7,62.0,85,55,36,30.14,30.02,16,10,22,0.00
2013-7-31,95.0,83.4,70.0,68.0,64.8,60.0,85,57,32,30.22,30.10,13,8,18,0.00
2013-8-1,93.0,79.2,72.0,70.0,62.9,58.0,74,59,33,30.22,30.06,22,10,31,0.00
2013-8-2,99.0,84.1,69.0,63.0,54.6,44.0,74,43,15,30.07,29.94,18,10,23,0.00
2013-8-3,100.0,84.3,67.0,57.0,53.5,49.0,64,38,17,30.08,29.99,19,11,24,0.00
2013-8-4,95.0,81.1,65.0,62.0,54.9,51.0,70,43,22,30.16,30.03,16,9,22,0.00
2013-8-5,97.0,81.3,68.0,63.0,57.4,51.0,67,47,21,30.11,29.93,16,10,21,0.00
2013-8-6,102.0,85.4,69.0,59.0,54.3,48.0,62,38,17,29.99,29.87,20,10,28,0.00
2013-8-7,98.0,82.3,72.0,64.0,55.0,50.0,77,42,20,29.98,29.91,28,8,35,0.00
2013-8-8,97.0,81.4,68.0,61.0,55.5,47.0,74,45,18,29.97,29.88,20,8,25,0.00
2013-8-9,89.0,75.8,64.0,61.0,59.0,57.0,82,59,35,30.20,29.96,16,10,20,0.00
2013-8-10,89.0,75.4,65.0,63.0,58.9,54.0,90,60,31,30.29,30.13,14,8,19,0.00
2013-8-11,94.0,75.4,68.0,67.0,61.7,56.0,91,66,30,30.23,30.11,12,6,15,0.18
2013-8-12,91.0,76.9,68.0,67.0,65.0,58.0,95,70,33,30.18,30.06,12,7,15,0.00
2013-10-24,70.0,63.6,55.0,42.0,38.0,35.0,61,41,27,30.28,30.19,14,14,19,0.00
2013-10-25,61.0,50.0,43.0,46.0,40.0,36.0,76,68,59,30.38,30.21,15,12,19,0.00
2013-10-26,72.0,67.6,62.0,51.0,46.0,42.0,66,47,33,30.20,30.14,16,11,22,0.00
2013-10-27,71.0,53.5,41.0,35.0,31.8,28.0,74,51,19,30.22,30.01,13,8,19,0.00
2013-10-28,58.0,52.0,48.0,57.0,49.7,44.0,100,94,86,30.01,29.96,12,8,17,0.00
2013-12-20,44.0,36.3,32.0,35.0,24.8,18.0,100,65,36,29.92,29.72,22,11,26,0.57
2013-12-21,48.0,44.2,31.0,42.0,33.7,-99.9,100,71,65,29.81,29.50,23,17,29,0.01
2013-12-22,43.0,33.6,27.0,30.0,26.1,22.0,93,74,48,30.28,29.81,17,10,22,0.00
2013-12-23,50.0,34.7,26.0,30.0,26.5,24.0,95,75,36,30.44,30.27,12,8,15,0.00
2013-12-24,59.0,38.9,24.0,34.0,28.3,23.0,98,71,30,30.43,30.08,27,13,33,0.00
2013-12-25,48.0,36.9,26.0,33.0,28.6,21.0,95,73,41,30.44,30.12,30,14,39,0.00
2013-12-26,51.0,34.9,22.0,31.0,21.9,19.0,88,63,29,30.43,30.25,11,8,14,0.00